Time,TemperatureF,DewpointF,PressureIn,WindDirection,WindDirectionDegrees,WindSpeedMPH,WindSpeedGustMPH,Humidity,HourlyPrecipIn,Conditions,Clouds,dailyrainin,SoftwareType,DateUTC
2013-10-10 00:01:00,53.7,46.3,30.20,WSW,253,0.3,1.2,76,0.00,SCT,,0.00,WeatherDisplay:10.37,2013-10-10 04:01:00,
2013-10-10 00:06:00,53.7,46.0,30.20,West,281,0.3,1.2,75,0.00,SCT,,0.00,WeatherDisplay:10.37,2013-10-10 04:06:00,
2013-10-10 00:11:00,53.8,46.4,30.20,West,278,0.0,0.0,76,0.00,SCT,,0.00,WeatherDisplay:10.37,2013-10-10 04:11:00,
2013-10-10 00:16:00,53.9,46.9,30.20,West,280,0.0,0.0,77,0.00,OVC,,0.00,WeatherDisplay:10.37,2013-10-10 04:16:00,
2013-10-10 00:21:00,54.0,46.3,30.19,West,280,0.0,0.0,75,0.00,OVC,,0.00,WeatherDisplay:10.37,2013-10-10 04:21:00,
2013-10-10 00:26:00,54.0,46.3,30.19,WSW,242,0.1,1.2,75,0.00,OVC,,0.00,WeatherDisplay:10.37,2013-10-10 04:26:00,
2013-10-10 00:31:00,54.0,46.3,30.19,WSW,255,0.0,1.2,75,0.00,OVC,,0.00,WeatherDisplay:10.37,2013-10-10 04:31:00,
2013-10-10 00:36:00,53.9,46.2,30.19,SSW,206,0.0,1.2,75,0.00,OVC,,0.00,WeatherDisplay:10.37,2013-10-10 04:36:00,
2013-10-10 00:41:00,53.9,46.2,30.19,SW,235,0.3,2.0,75,0.00,OVC,,0.00,WeatherDisplay:10.37,2013-10-10 04:41:00,
2013-10-10 00:46:00,53.9,46.2,30.19,NE,42,0.0,0.0,75,0.00,OVC,,0.00,WeatherDisplay:10.37,2013-10-10 04:46:00,
2013-10-10 00:51:00,54.0,45.9,30.19,SW,228,0.3,1.2,74,0.00,OVC,,0.00,WeatherDisplay:10.37,2013-10-10 04:51:00,
2013-10-10 00:56:00,53.9,46.2,30.19,WSW,241,0.0,0.0,75,0.00,OVC,,0.00,WeatherDisplay:10.37,2013-10-10 04:56:00,
2013-10-10 01:01:00,53.8,45.7,30.19,West,264,0.0,0.0,74,0.00,OVC,,0.00,WeatherDisplay:10.37,2013-10-10 05:01:00,
2013-10-10 01:06:00,53.8,46.1,30.18,West,264,0.0,0.0,75,0.00,OVC,,0.00,WeatherDisplay:10.37,2013-10-10 05:06:00,
2013-10-10 01:11:00,53.8,46.1,30.18,West,264,0.0,0.0,75,0.00,OVC,,0.00,WeatherDisplay:10.37,2013-10-10 05:11:00,
2013-10-10 01:16:00,53.8,46.1,30.18,WNW,291,0.0,1.2,75,0.00,OVC,,0.00,WeatherDisplay:10.37,2013-10-10 05:16:00,
2013-10-10 01:21:00,53.7,45.6,30.18,WNW,285,0.0,0.0,74,0.00,OVC,,0.00,WeatherDisplay:10.37,2013-10-10 05:21:00,
2013-10-10 01:26:00,53.7,46.0,30.18,SSW,204,0.1,0.0,75,0.00,OVC,,0.00,WeatherDisplay:10.37,2013-10-10 05:26:00,
2013-10-10 01:31:00,53.7,46.3,30.18,SW,232,0.3,2.3,76,0.00,OVC,,0.00,WeatherDisplay:10.37,2013-10-10 05:31:00,
2013-10-10 01:36:00,53.6,46.6,30.18,WSW,239,0.0,0.0,77,0.00,OVC,,0.00,WeatherDisplay:10.37,2013-10-10 05:36:00,
2013-10-10 01:41:00,53.5,46.8,30.18,WSW,240,0.0,0.0,78,0.00,OVC,,0.00,WeatherDisplay:10.37,2013-10-10 05:41:00,
2013-10-10 01:46:00,53.3,46.6,30.18,WSW,239,0.0,0.0,78,0.00,OVC,,0.00,WeatherDisplay:10.37,2013-10-10 05:46:00,
2013-10-10 01:51:00,53.1,46.8,30.18,NNE,16,0.0,0.0,79,0.00,OVC,,0.00,WeatherDisplay:10.37,2013-10-10 05:51:00,
2013-10-10 01:56:00,52.8,47.1,30.18,NNE,16,0.0,0.0,81,0.00,OVC,,0.00,WeatherDisplay:10.37,2013-10-10 05:56:00,
2013-10-10 02:01:00,52.4,47.1,30.18,NNE,16,0.0,0.0,82,0.00,OVC,,0.00,WeatherDisplay:10.37,2013-10-10 06:01:00,
2013-10-10 02:06:00,51.9,47.2,30.18,NNE,15,0.0,0.0,84,0.01,RA,,0.01,WeatherDisplay:10.37,2013-10-10 06:06:00,
2013-10-10 02:11:00,51.6,47.9,30.17,NNE,16,0.0,0.0,87,0.01,RA,,0.01,WeatherDisplay:10.37,2013-10-10 06:11:00,
2013-10-10 02:16:00,51.3,48.2,30.17,NNE,16,0.0,0.0,89,0.01,-RA,,0.01,WeatherDisplay:10.37,2013-10-10 06:16:00,
2013-10-10 02:21:00,50.9,47.8,30.17,NNE,16,0.0,0.0,89,0.01,-RA,,0.01,WeatherDisplay:10.37,2013-10-10 06:21:00,
2013-10-10 02:26:00,50.7,47.9,30.17,NNE,16,0.0,0.0,90,0.01,-RA,,0.01,WeatherDisplay:10.37,2013-10-10 06:26:00,
2013-10-10 02:31:00,50.6,47.8,30.17,NNE,16,0.0,0.0,90,0.01,-RA,,0.01,WeatherDisplay:10.37,2013-10-10 06:31:00,
2013-10-10 02:36:00,50.5,47.7,30.17,NNE,16,0.0,0.0,90,0.02,-RA,,0.02,WeatherDisplay:10.37,2013-10-10 06:36:00,
2013-10-10 02:41:00,50.4,47.9,30.17,NNE,16,0.0,0.0,91,0.02,-RA,,0.02,WeatherDisplay:10.37,2013-10-10 06:41:00,
2013-10-10 02:46:00,50.3,48.1,30.17,NNE,16,0.1,1.2,92,0.03,-RA,,0.03,WeatherDisplay:10.37,2013-10-10 06:46:00,
2013-10-10 02:51:00,50.1,47.9,30.17,NNE,16,0.0,1.2,92,0.03,-RA,,0.04,WeatherDisplay:10.37,2013-10-10 06:51:00,
2013-10-10 02:56:00,50.1,48.2,30.17,NNE,16,0.0,0.0,93,0.04,-RA,,0.04,WeatherDisplay:10.37,2013-10-10 06:56:00,
2013-10-10 03:01:00,50.1,48.2,30.17,NNE,16,0.0,0.0,93,0.05,-RA,,0.05,WeatherDisplay:10.37,2013-10-10 07:01:00,
2013-10-10 03:06:00,50.1,48.4,30.16,NNE,16,0.0,0.0,94,0.04,-RA,,0.05,WeatherDisplay:10.37,2013-10-10 07:06:00,
2013-10-10 03:11:00,50.2,48.5,30.16,NNE,16,0.0,0.0,94,0.04,-RA,,0.05,WeatherDisplay:10.37,2013-10-10 07:11:00,
2013-10-10 03:16:00,50.1,48.4,30.16,SW,231,0.0,0.0,94,0.04,-RA,,0.05,WeatherDisplay:10.37,2013-10-10 07:16:00,
2013-10-10 03:21:00,50.1,48.4,30.16,SW,231,0.0,0.0,94,0.04,-RA,,0.05,WeatherDisplay:10.37,2013-10-10 07:21:00,
2013-10-10 03:26:00,50.0,48.3,30.16,SW,231,0.0,0.0,94,0.04,-RA,,0.05,WeatherDisplay:10.37,2013-10-10 07:26:00,
2013-10-10 03:31:00,49.9,48.2,30.16,SW,231,0.0,0.0,94,0.04,-RA,,0.05,WeatherDisplay:10.37,2013-10-10 07:31:00,
2013-10-10 03:36:00,49.8,48.4,30.15,SW,229,0.0,0.0,95,0.03,-RA,,0.05,WeatherDisplay:10.37,2013-10-10 07:36:00,
2013-10-10 03:41:00,49.8,48.4,30.15,SW,231,0.0,0.0,95,0.03,-RA,,0.05,WeatherDisplay:10.37,2013-10-10 07:41:00,
2013-10-10 03:46:00,49.8,48.4,30.15,SW,235,0.0,0.0,95,0.02,-RA,,0.05,WeatherDisplay:10.37,2013-10-10 07:46:00,
2013-10-10 03:51:00,49.8,48.4,30.15,SW,236,0.0,0.0,95,0.02,-RA,,0.05,WeatherDisplay:10.37,2013-10-10 07:51:00,
2013-10-10 03:56:00,49.8,48.4,30.15,NE,45,0.0,0.0,95,0.01,-RA,,0.05,WeatherDisplay:10.37,2013-10-10 07:56:00,
2013-10-10 04:01:00,49.8,48.4,30.15,NE,45,0.0,0.0,95,0.00,-RA,,0.05,WeatherDisplay:10.37,2013-10-10 08:01:00,
2013-10-10 04:06:00,49.7,48.3,30.15,NE,45,0.0,1.2,95,0.00,-RA,,0.05,WeatherDisplay:10.37,2013-10-10 08:06:00,
2013-10-10 04:11:00,49.7,48.3,30.15,SW,229,0.0,0.0,95,0.00,-RA,,0.05,WeatherDisplay:10.37,2013-10-10 08:11:00,
2013-10-10 04:16:00,49.7,48.3,30.15,SW,226,0.0,0.0,95,0.00,OVC,,0.05,WeatherDisplay:10.37,2013-10-10 08:16:00,
2013-10-10 04:21:00,49.8,48.7,30.15,SW,228,0.0,0.0,96,0.01,RA,,0.06,WeatherDisplay:10.37,2013-10-10 08:21:00,
2013-10-10 04:26:00,49.9,48.8,30.15,SW,228,0.0,0.0,96,0.03,RA,,0.08,WeatherDisplay:10.37,2013-10-10 08:26:00,
2013-10-10 04:31:00,50.0,48.9,30.15,SW,229,0.0,0.0,96,0.05,RA,,0.10,WeatherDisplay:10.37,2013-10-10 08:31:00,
2013-10-10 04:36:00,49.9,48.8,30.15,SW,229,0.0,1.2,96,0.06,RA,,0.11,WeatherDisplay:10.37,2013-10-10 08:36:00,
2013-10-10 04:41:00,49.9,48.8,30.15,SW,234,0.0,0.0,96,0.06,RA,,0.11,WeatherDisplay:10.37,2013-10-10 08:41:00,
2013-10-10 04:46:00,49.9,48.8,30.15,SW,236,0.0,0.0,96,0.07,RA,,0.12,WeatherDisplay:10.37,2013-10-10 08:46:00,
2013-10-10 04:51:00,49.9,48.8,30.15,WSW,243,0.1,1.2,96,0.07,RA,,0.12,WeatherDisplay:10.37,2013-10-10 08:51:00,
2013-10-10 04:56:00,49.8,48.7,30.15,SSW,207,0.0,0.0,96,0.07,RA,,0.12,WeatherDisplay:10.37,2013-10-10 08:56:00,
2013-10-10 05:01:00,49.7,48.6,30.15,West,268,0.4,2.0,96,0.07,RA,,0.12,WeatherDisplay:10.37,2013-10-10 09:01:00,
2013-10-10 05:06:00,49.7,48.6,30.15,SW,233,0.0,0.0,96,0.07,RA,,0.12,WeatherDisplay:10.37,2013-10-10 09:06:00,
2013-10-10 05:11:00,49.7,48.6,30.15,WSW,250,2.1,3.5,96,0.07,RA,,0.12,WeatherDisplay:10.37,2013-10-10 09:11:00,
2013-10-10 05:16:00,49.6,48.5,30.14,West,263,0.1,1.2,96,0.08,-RA,,0.13,WeatherDisplay:10.37,2013-10-10 09:16:00,
2013-10-10 05:21:00,49.6,48.5,30.14,WSW,253,0.1,1.2,96,0.07,-RA,,0.13,WeatherDisplay:10.37,2013-10-10 09:21:00,
2013-10-10 05:26:00,49.6,48.5,30.14,SW,218,1.0,2.0,96,0.05,-RA,,0.13,WeatherDisplay:10.37,2013-10-10 09:26:00,
2013-10-10 05:31:00,49.6,48.5,30.14,West,271,0.0,3.5,96,0.03,-RA,,0.13,WeatherDisplay:10.37,2013-10-10 09:31:00,
2013-10-10 05:36:00,49.7,48.9,30.14,WNW,296,0.0,1.2,97,0.03,-RA,,0.14,WeatherDisplay:10.37,2013-10-10 09:36:00,
2013-10-10 05:41:00,49.8,49.0,30.14,WNW,297,0.0,1.2,97,0.03,-RA,,0.14,WeatherDisplay:10.37,2013-10-10 09:41:00,
2013-10-10 05:46:00,49.8,49.0,30.14,SW,235,0.0,1.2,97,0.04,-RA,,0.16,WeatherDisplay:10.37,2013-10-10 09:46:00,
2013-10-10 05:51:00,49.8,49.0,30.14,WSW,253,0.1,1.2,97,0.05,-RA,,0.17,WeatherDisplay:10.37,2013-10-10 09:51:00,
2013-10-10 05:56:00,49.7,48.9,30.14,SW,233,0.1,1.2,97,0.06,-RA,,0.18,WeatherDisplay:10.37,2013-10-10 09:56:00,
2013-10-10 06:01:00,49.7,48.9,30.14,WSW,238,0.3,2.0,97,0.07,-RA,,0.19,WeatherDisplay:10.37,2013-10-10 10:01:00,
2013-10-10 06:06:00,49.6,48.8,30.14,SW,217,1.0,3.0,97,0.07,-RA,,0.19,WeatherDisplay:10.37,2013-10-10 10:06:00,
2013-10-10 06:11:00,49.7,48.9,30.14,WSW,243,0.6,2.3,97,0.07,-RA,,0.19,WeatherDisplay:10.37,2013-10-10 10:11:00,
2013-10-10 06:16:00,49.8,49.0,30.14,WSW,240,0.1,2.3,97,0.06,-RA,,0.19,WeatherDisplay:10.37,2013-10-10 10:16:00,
2013-10-10 06:21:00,49.9,49.1,30.14,SSW,210,0.0,1.2,97,0.06,-RA,,0.19,WeatherDisplay:10.37,2013-10-10 10:21:00,
2013-10-10 06:26:00,50.1,49.3,30.14,WNW,301,0.0,0.0,97,0.06,-RA,,0.19,WeatherDisplay:10.37,2013-10-10 10:26:00,
2013-10-10 06:31:00,50.1,49.3,30.14,WNW,301,0.0,1.0,97,0.06,-RA,,0.19,WeatherDisplay:10.37,2013-10-10 10:31:00,
2013-10-10 06:36:00,50.2,49.4,30.14,ESE,120,0.1,0.0,97,0.05,-RA,,0.19,WeatherDisplay:10.37,2013-10-10 10:36:00,
2013-10-10 06:41:00,50.3,49.5,30.14,WSW,239,0.0,0.0,97,0.05,-RA,,0.19,WeatherDisplay:10.37,2013-10-10 10:41:00,
2013-10-10 06:46:00,50.3,49.5,30.14,SW,231,0.0,1.2,97,0.03,-RA,,0.19,WeatherDisplay:10.37,2013-10-10 10:46:00,
2013-10-10 06:51:00,50.4,49.6,30.14,SW,231,0.0,0.0,97,0.02,-RA,,0.19,WeatherDisplay:10.37,2013-10-10 10:51:00,
2013-10-10 06:56:00,50.4,49.6,30.14,SW,231,0.0,0.0,97,0.01,-RA,,0.19,WeatherDisplay:10.37,2013-10-10 10:56:00,
2013-10-10 07:01:00,50.5,49.7,30.14,SW,231,0.0,0.0,97,0.00,BKN,,0.19,WeatherDisplay:10.37,2013-10-10 11:01:00,
2013-10-10 07:06:00,50.5,49.7,30.14,SW,231,0.0,0.0,97,0.01,RA,,0.20,WeatherDisplay:10.37,2013-10-10 11:06:00,
2013-10-10 07:11:00,50.6,49.8,30.14,SW,231,0.0,0.0,97,0.01,RA,,0.20,WeatherDisplay:10.37,2013-10-10 11:11:00,
2013-10-10 07:16:00,50.7,50.2,30.14,SW,231,0.0,0.0,98,0.01,RA,,0.20,WeatherDisplay:10.37,2013-10-10 11:16:00,
2013-10-10 07:21:00,50.8,50.3,30.14,SW,231,0.0,0.0,98,0.01,RA,,0.20,WeatherDisplay:10.37,2013-10-10 11:21:00,
2013-10-10 07:26:00,50.8,50.3,30.14,SW,231,0.0,0.0,98,0.01,RA,,0.20,WeatherDisplay:10.37,2013-10-10 11:26:00,
2013-10-10 07:31:00,50.8,50.0,30.14,SW,231,0.0,0.0,97,0.01,RA,,0.20,WeatherDisplay:10.37,2013-10-10 11:31:00,
2013-10-10 07:36:00,50.9,50.4,30.14,SW,231,0.0,0.0,98,0.01,BKN,,0.20,WeatherDisplay:10.37,2013-10-10 11:36:00,
2013-10-10 07:41:00,50.9,50.4,30.14,SW,231,0.0,0.0,98,0.01,BKN,,0.20,WeatherDisplay:10.37,2013-10-10 11:41:00,
2013-10-10 07:46:00,50.9,50.4,30.14,SW,231,0.0,0.0,98,0.01,BKN,,0.20,WeatherDisplay:10.37,2013-10-10 11:46:00,
2013-10-10 07:51:00,51.0,50.5,30.15,SW,231,0.0,0.0,98,0.01,BKN,,0.20,WeatherDisplay:10.37,2013-10-10 11:51:00,
2013-10-10 07:56:00,51.1,50.6,30.14,SW,231,0.0,0.0,98,0.01,BKN,,0.20,WeatherDisplay:10.37,2013-10-10 11:56:00,
2013-10-10 08:01:00,51.1,50.6,30.15,SW,231,0.0,0.0,98,0.01,BKN,,0.20,WeatherDisplay:10.37,2013-10-10 12:01:00,
2013-10-10 08:06:00,51.3,50.8,30.15,SW,231,0.0,0.0,98,0.00,-RA,,0.20,WeatherDisplay:10.37,2013-10-10 12:06:00,
2013-10-10 08:11:00,51.4,50.9,30.15,SW,231,0.0,1.2,98,0.00,-RA,,0.20,WeatherDisplay:10.37,2013-10-10 12:11:00,
2013-10-10 08:16:00,51.4,50.9,30.15,SW,231,0.0,0.0,98,0.00,-RA,,0.20,WeatherDisplay:10.37,2013-10-10 12:16:00,
2013-10-10 08:21:00,51.4,50.9,30.15,SW,231,0.0,0.0,98,0.00,-RA,,0.20,WeatherDisplay:10.37,2013-10-10 12:21:00,
2013-10-10 08:26:00,51.4,50.9,30.15,SW,231,0.0,1.2,98,0.00,-RA,,0.20,WeatherDisplay:10.37,2013-10-10 12:26:00,
2013-10-10 08:31:00,51.5,51.0,30.15,SW,231,0.0,0.0,98,0.00,-RA,,0.20,WeatherDisplay:10.37,2013-10-10 12:31:00,
2013-10-10 08:36:00,51.5,51.0,30.15,SW,231,0.0,0.0,98,0.00,-RA,,0.20,WeatherDisplay:10.37,2013-10-10 12:36:00,
2013-10-10 08:41:00,51.5,51.0,30.15,WNW,301,0.0,0.0,98,0.00,-RA,,0.20,WeatherDisplay:10.37,2013-10-10 12:41:00,
2013-10-10 08:46:00,51.6,51.1,30.15,WNW,301,0.0,0.0,98,0.01,-RA,,0.21,WeatherDisplay:10.37,2013-10-10 12:46:00,
2013-10-10 08:51:00,51.8,51.3,30.15,WNW,301,0.0,0.0,98,0.01,-RA,,0.21,WeatherDisplay:10.37,2013-10-10 12:51:00,
2013-10-10 08:56:00,51.9,51.4,30.15,NNW,340,0.0,1.2,98,0.01,-RA,,0.21,WeatherDisplay:10.37,2013-10-10 12:56:00,
2013-10-10 09:01:00,51.9,51.4,30.15,NW,318,0.0,0.0,98,0.01,-RA,,0.21,WeatherDisplay:10.37,2013-10-10 13:01:00,
2013-10-10 09:06:00,51.9,51.4,30.15,WSW,246,0.0,1.2,98,0.01,-RA,,0.21,WeatherDisplay:10.37,2013-10-10 13:06:00,
2013-10-10 09:11:00,52.0,51.5,30.15,WSW,246,0.0,0.0,98,0.01,-RA,,0.21,WeatherDisplay:10.37,2013-10-10 13:11:00,
2013-10-10 09:16:00,51.9,51.4,30.15,WSW,246,0.0,0.0,98,0.01,BKN,,0.21,WeatherDisplay:10.37,2013-10-10 13:16:00,
2013-10-10 09:21:00,52.0,51.5,30.15,WSW,246,0.0,1.2,98,0.01,BKN,,0.21,WeatherDisplay:10.37,2013-10-10 13:21:00,
2013-10-10 09:26:00,52.1,51.6,30.15,WSW,246,0.0,0.0,98,0.01,BKN,,0.21,WeatherDisplay:10.37,2013-10-10 13:26:00,
2013-10-10 09:31:00,52.1,51.6,30.15,SSW,203,0.0,0.0,98,0.01,BKN,,0.21,WeatherDisplay:10.37,2013-10-10 13:31:00,
2013-10-10 09:36:00,52.1,51.6,30.15,SSW,203,0.0,0.0,98,0.01,BKN,,0.21,WeatherDisplay:10.37,2013-10-10 13:36:00,
2013-10-10 09:41:00,52.3,51.8,30.15,SSW,208,0.0,0.0,98,0.01,BKN,,0.21,WeatherDisplay:10.37,2013-10-10 13:41:00,
2013-10-10 09:46:00,52.4,51.9,30.15,SSW,208,0.0,0.0,98,0.00,BKN,,0.21,WeatherDisplay:10.37,2013-10-10 13:46:00,
2013-10-10 09:51:00,52.5,52.0,30.15,SW,221,0.0,0.0,98,0.01,RA,,0.22,WeatherDisplay:10.37,2013-10-10 13:51:00,
2013-10-10 09:56:00,52.7,52.2,30.15,SW,221,0.0,0.0,98,0.01,RA,,0.22,WeatherDisplay:10.37,2013-10-10 13:56:00,
2013-10-10 10:01:00,52.9,52.4,30.15,SW,224,0.0,0.0,98,0.01,RA,,0.22,WeatherDisplay:10.37,2013-10-10 14:01:00,
2013-10-10 10:06:00,52.9,52.4,30.15,West,265,0.0,0.0,98,0.01,RA,,0.22,WeatherDisplay:10.37,2013-10-10 14:06:00,
2013-10-10 10:11:00,53.1,52.6,30.15,West,266,0.0,0.0,98,0.01,RA,,0.22,WeatherDisplay:10.37,2013-10-10 14:11:00,
2013-10-10 10:16:00,53.2,52.7,30.15,West,262,0.0,0.0,98,0.01,RA,,0.22,WeatherDisplay:10.37,2013-10-10 14:16:00,
2013-10-10 10:21:00,53.3,52.8,30.15,West,262,0.1,0.0,98,0.01,OVC,,0.22,WeatherDisplay:10.37,2013-10-10 14:21:00,
2013-10-10 10:26:00,53.4,52.8,30.15,West,262,0.0,0.0,98,0.01,OVC,,0.22,WeatherDisplay:10.37,2013-10-10 14:26:00,
2013-10-10 10:31:00,53.5,52.9,30.15,ENE,72,0.0,0.0,98,0.01,OVC,,0.22,WeatherDisplay:10.37,2013-10-10 14:31:00,
2013-10-10 10:36:00,53.6,53.0,30.15,ENE,72,0.0,0.0,98,0.01,OVC,,0.22,WeatherDisplay:10.37,2013-10-10 14:36:00,
2013-10-10 10:41:00,53.7,53.1,30.15,ENE,72,0.0,0.0,98,0.01,OVC,,0.22,WeatherDisplay:10.37,2013-10-10 14:41:00,
2013-10-10 10:46:00,53.9,53.3,30.15,SW,215,0.0,0.0,98,0.01,OVC,,0.22,WeatherDisplay:10.37,2013-10-10 14:46:00,
2013-10-10 10:51:00,54.1,53.5,30.15,WSW,240,0.1,1.2,98,0.00,OVC,,0.22,WeatherDisplay:10.37,2013-10-10 14:51:00,
2013-10-10 10:56:00,54.1,53.5,30.14,SW,226,0.4,2.3,98,0.00,OVC,,0.22,WeatherDisplay:10.37,2013-10-10 14:56:00,
2013-10-10 11:01:00,54.2,53.6,30.14,SW,226,0.0,0.0,98,0.00,OVC,,0.22,WeatherDisplay:10.37,2013-10-10 15:01:00,
2013-10-10 11:06:00,54.4,53.8,30.14,WSW,240,0.0,1.2,98,0.00,OVC,,0.22,WeatherDisplay:10.37,2013-10-10 15:06:00,
2013-10-10 11:11:00,54.5,53.9,30.14,WSW,240,0.0,0.0,98,0.00,OVC,,0.22,WeatherDisplay:10.37,2013-10-10 15:11:00,
2013-10-10 11:16:00,54.4,53.6,30.14,WSW,240,0.0,0.0,97,0.00,OVC,,0.22,WeatherDisplay:10.37,2013-10-10 15:16:00,
2013-10-10 11:21:00,54.5,53.9,30.13,WSW,240,0.0,0.0,98,0.00,OVC,,0.22,WeatherDisplay:10.37,2013-10-10 15:21:00,
2013-10-10 11:26:00,54.7,54.1,30.13,WSW,240,0.3,1.2,98,0.00,OVC,,0.22,WeatherDisplay:10.37,2013-10-10 15:26:00,
2013-10-10 11:31:00,54.8,54.2,30.13,SW,222,0.0,0.0,98,0.00,OVC,,0.22,WeatherDisplay:10.37,2013-10-10 15:31:00,
2013-10-10 11:36:00,55.0,54.4,30.13,SW,222,0.0,0.0,98,0.00,OVC,,0.22,WeatherDisplay:10.37,2013-10-10 15:36:00,
2013-10-10 11:41:00,55.3,54.7,30.13,SSE,155,0.0,0.0,98,0.00,OVC,,0.22,WeatherDisplay:10.37,2013-10-10 15:41:00,
2013-10-10 11:47:00,55.6,55.0,30.13,SSE,155,0.0,0.0,98,0.00,OVC,,0.22,WeatherDisplay:10.37,2013-10-10 15:47:00,
2013-10-10 11:52:00,55.8,55.0,30.13,South,174,0.0,0.0,97,0.00,OVC,,0.22,WeatherDisplay:10.37,2013-10-10 15:52:00,
2013-10-10 11:57:00,55.8,55.0,30.13,South,174,0.0,0.0,97,0.00,OVC,,0.22,WeatherDisplay:10.37,2013-10-10 15:57:00,
2013-10-10 12:02:00,55.9,55.1,30.13,South,174,0.0,0.0,97,0.00,OVC,,0.22,WeatherDisplay:10.37,2013-10-10 16:02:00,
2013-10-10 12:07:00,55.9,55.1,30.13,South,174,0.0,0.0,97,0.00,OVC,,0.22,WeatherDisplay:10.37,2013-10-10 16:07:00,
2013-10-10 12:12:00,56.0,55.2,30.13,East,85,0.0,0.0,97,0.00,OVC,,0.22,WeatherDisplay:10.37,2013-10-10 16:12:00,
2013-10-10 12:17:00,56.1,55.3,30.13,East,86,0.0,0.0,97,0.00,-RA,,0.22,WeatherDisplay:10.37,2013-10-10 16:17:00,
2013-10-10 12:22:00,56.4,55.6,30.12,East,85,0.0,0.0,97,0.00,-RA,,0.22,WeatherDisplay:10.37,2013-10-10 16:22:00,
2013-10-10 12:27:00,56.4,55.3,30.12,East,85,0.0,0.0,96,0.00,-RA,,0.22,WeatherDisplay:10.37,2013-10-10 16:27:00,
2013-10-10 12:32:00,56.5,55.7,30.12,East,85,0.0,0.0,97,0.00,-RA,,0.22,WeatherDisplay:10.37,2013-10-10 16:32:00,
2013-10-10 12:37:00,56.7,55.9,30.12,East,84,0.0,1.2,97,0.01,-RA,,0.23,WeatherDisplay:10.37,2013-10-10 16:37:00,
2013-10-10 12:42:00,56.7,55.6,30.12,East,84,0.0,0.0,96,0.01,-RA,,0.23,WeatherDisplay:10.37,2013-10-10 16:42:00,
2013-10-10 12:47:00,56.8,56.0,30.11,East,85,0.0,0.0,97,0.01,-RA,,0.23,WeatherDisplay:10.37,2013-10-10 16:47:00,
2013-10-10 12:52:00,56.9,56.1,30.11,East,86,0.0,0.0,97,0.01,-RA,,0.23,WeatherDisplay:10.37,2013-10-10 16:52:00,
2013-10-10 12:57:00,57.2,56.4,30.11,East,85,0.0,0.0,97,0.01,-RA,,0.23,WeatherDisplay:10.37,2013-10-10 16:57:00,
2013-10-10 13:02:00,57.4,56.6,30.11,East,86,0.0,0.0,97,0.01,RA,,0.23,WeatherDisplay:10.37,2013-10-10 17:02:00,
2013-10-10 13:07:00,57.9,57.1,30.11,SW,221,0.0,1.2,97,0.01,OVC,,0.23,WeatherDisplay:10.37,2013-10-10 17:07:00,
2013-10-10 13:12:00,57.9,56.8,30.11,SW,221,0.1,1.2,96,0.01,OVC,,0.23,WeatherDisplay:10.37,2013-10-10 17:12:00,
2013-10-10 13:17:00,58.2,57.4,30.11,SW,214,0.0,0.0,97,0.01,OVC,,0.23,WeatherDisplay:10.37,2013-10-10 17:17:00,
2013-10-10 13:22:00,58.4,57.3,30.10,SW,215,0.6,1.2,96,0.01,OVC,,0.23,WeatherDisplay:10.37,2013-10-10 17:22:00,
2013-10-10 13:27:00,58.8,58.0,30.10,SSW,205,0.0,0.0,97,0.01,OVC,,0.23,WeatherDisplay:10.37,2013-10-10 17:27:00,
2013-10-10 13:32:00,59.1,58.2,30.10,SSW,205,0.0,0.0,97,0.01,OVC,,0.23,WeatherDisplay:10.37,2013-10-10 17:32:00,
2013-10-10 13:37:00,59.4,58.5,30.09,WSW,246,0.1,0.0,97,0.00,OVC,,0.23,WeatherDisplay:10.37,2013-10-10 17:37:00,
2013-10-10 13:42:00,59.8,58.7,30.09,West,280,0.0,1.2,96,0.00,OVC,,0.23,WeatherDisplay:10.37,2013-10-10 17:42:00,
2013-10-10 13:47:00,60.2,59.1,30.09,SW,221,0.9,2.3,96,0.00,OVC,,0.23,WeatherDisplay:10.37,2013-10-10 17:47:00,
2013-10-10 13:52:00,60.6,59.2,30.09,SW,215,1.1,2.3,95,0.00,OVC,,0.23,WeatherDisplay:10.37,2013-10-10 17:52:00,
2013-10-10 13:57:00,61.0,59.6,30.08,SW,224,0.0,0.0,95,0.00,OVC,,0.23,WeatherDisplay:10.37,2013-10-10 17:57:00,
2013-10-10 14:02:00,61.5,59.5,30.08,SW,225,0.3,1.2,93,0.00,OVC,,0.23,WeatherDisplay:10.37,2013-10-10 18:02:00,
2013-10-10 14:07:00,61.9,59.9,30.08,ENE,72,0.1,1.2,93,0.00,OVC,,0.23,WeatherDisplay:10.37,2013-10-10 18:07:00,
2013-10-10 14:12:00,62.2,59.8,30.08,SW,214,0.0,0.0,92,0.00,OVC,,0.23,WeatherDisplay:10.37,2013-10-10 18:12:00,
2013-10-10 14:17:00,62.8,59.8,30.08,SW,225,0.0,2.3,90,0.00,OVC,,0.23,WeatherDisplay:10.37,2013-10-10 18:17:00,
2013-10-10 14:22:00,63.3,60.0,30.08,SW,215,0.7,2.3,89,0.00,OVC,,0.23,WeatherDisplay:10.37,2013-10-10 18:22:00,
2013-10-10 14:27:00,63.2,59.6,30.07,WSW,238,0.0,0.0,88,0.00,OVC,,0.23,WeatherDisplay:10.37,2013-10-10 18:27:00,
2013-10-10 14:32:00,63.1,59.8,30.07,SW,236,0.0,0.0,89,0.00,OVC,,0.23,WeatherDisplay:10.37,2013-10-10 18:32:00,
2013-10-10 14:37:00,63.2,59.9,30.07,SW,228,0.0,0.0,89,0.00,OVC,,0.23,WeatherDisplay:10.37,2013-10-10 18:37:00,
2013-10-10 14:42:00,63.0,59.7,30.07,ESE,113,0.0,0.0,89,0.00,OVC,,0.23,WeatherDisplay:10.37,2013-10-10 18:42:00,
2013-10-10 14:47:00,63.1,59.8,30.07,SE,134,0.0,1.2,89,0.00,OVC,,0.23,WeatherDisplay:10.37,2013-10-10 18:47:00,
2013-10-10 14:52:00,63.2,60.2,30.07,WSW,240,0.0,1.0,90,0.00,OVC,,0.23,WeatherDisplay:10.37,2013-10-10 18:52:00,
2013-10-10 14:57:00,63.6,60.0,30.06,SW,224,0.1,1.2,88,0.00,OVC,,0.23,WeatherDisplay:10.37,2013-10-10 18:57:00,
2013-10-10 15:02:00,64.2,60.2,30.06,WSW,239,0.3,1.2,87,0.00,OVC,,0.23,WeatherDisplay:10.37,2013-10-10 19:02:00,
2013-10-10 15:07:00,64.4,59.8,30.06,WNW,283,1.1,3.5,85,0.00,OVC,,0.23,WeatherDisplay:10.37,2013-10-10 19:07:00,
2013-10-10 15:12:00,64.7,60.4,30.06,South,174,1.0,1.2,86,0.00,OVC,,0.23,WeatherDisplay:10.37,2013-10-10 19:12:00,
2013-10-10 15:17:00,65.2,60.6,30.06,NNW,335,0.3,2.3,85,0.00,OVC,,0.23,WeatherDisplay:10.37,2013-10-10 19:17:00,
2013-10-10 15:22:00,65.5,60.2,30.06,SW,234,2.0,2.3,83,0.00,OVC,,0.23,WeatherDisplay:10.37,2013-10-10 19:22:00,
2013-10-10 15:26:00,65.6,60.3,30.06,WSW,250,1.1,4.0,83,0.00,OVC,,0.23,WeatherDisplay:10.37,2013-10-10 19:26:00,
2013-10-10 15:32:00,65.6,60.3,30.06,NNW,342,0.6,1.2,83,0.00,OVC,,0.23,WeatherDisplay:10.37,2013-10-10 19:32:00,
2013-10-10 15:37:00,65.6,61.3,30.05,East,101,0.0,0.0,86,0.00,OVC,,0.23,WeatherDisplay:10.37,2013-10-10 19:37:00,
2013-10-10 15:42:00,65.9,60.9,30.05,WNW,288,0.8,2.3,84,0.00,OVC,,0.23,WeatherDisplay:10.37,2013-10-10 19:42:00,
2013-10-10 15:47:00,66.2,60.5,30.05,West,269,0.2,1.0,82,0.00,OVC,,0.23,WeatherDisplay:10.37,2013-10-10 19:47:00,
2013-10-10 15:51:00,66.3,59.9,30.05,SSW,198,0.4,1.2,80,0.00,OVC,,0.23,WeatherDisplay:10.37,2013-10-10 19:51:00,
2013-10-10 15:57:00,66.2,60.2,30.05,SW,221,0.0,2.3,81,0.00,OVC,,0.23,WeatherDisplay:10.37,2013-10-10 19:57:00,
2013-10-10 16:02:00,66.1,60.1,30.04,ENE,70,0.6,1.2,81,0.00,OVC,,0.23,WeatherDisplay:10.37,2013-10-10 20:02:00,
2013-10-10 16:07:00,66.1,60.1,30.04,WSW,253,1.6,3.5,81,0.00,OVC,,0.23,WeatherDisplay:10.37,2013-10-10 20:07:00,
2013-10-10 16:12:00,65.9,60.2,30.04,West,278,0.0,0.0,82,0.00,OVC,,0.23,WeatherDisplay:10.37,2013-10-10 20:12:00,
2013-10-10 16:17:00,65.6,60.3,30.04,WSW,255,0.2,1.2,83,0.00,OVC,,0.23,WeatherDisplay:10.37,2013-10-10 20:17:00,
2013-10-10 16:22:00,65.4,60.8,30.05,WSW,255,0.0,0.0,85,0.00,OVC,,0.23,WeatherDisplay:10.37,2013-10-10 20:22:00,
2013-10-10 16:27:00,65.4,60.4,30.04,WSW,252,0.0,0.0,84,0.00,OVC,,0.23,WeatherDisplay:10.37,2013-10-10 20:27:00,
2013-10-10 16:32:00,65.2,60.2,30.04,WNW,290,0.0,0.0,84,0.00,OVC,,0.23,WeatherDisplay:10.37,2013-10-10 20:32:00,
2013-10-10 16:37:00,65.2,60.6,30.04,WNW,290,0.0,0.0,85,0.00,OVC,,0.23,WeatherDisplay:10.37,2013-10-10 20:37:00,
2013-10-10 16:42:00,65.1,60.5,30.04,WNW,290,0.0,0.0,85,0.00,OVC,,0.23,WeatherDisplay:10.37,2013-10-10 20:42:00,
2013-10-10 16:47:00,65.0,60.0,30.04,WNW,290,0.0,1.2,84,0.00,OVC,,0.23,WeatherDisplay:10.37,2013-10-10 20:47:00,
2013-10-10 16:52:00,64.9,60.3,30.04,WNW,291,0.0,1.2,85,0.00,OVC,,0.23,WeatherDisplay:10.37,2013-10-10 20:52:00,
2013-10-10 16:57:00,64.8,60.5,30.04,WNW,291,0.2,0.0,86,0.00,OVC,,0.23,WeatherDisplay:10.37,2013-10-10 20:57:00,
2013-10-10 17:02:00,64.8,60.5,30.04,WNW,291,0.0,0.0,86,0.00,OVC,,0.23,WeatherDisplay:10.37,2013-10-10 21:02:00,
2013-10-10 17:07:00,64.9,60.6,30.04,WNW,291,0.0,0.0,86,0.00,OVC,,0.23,WeatherDisplay:10.37,2013-10-10 21:07:00,
2013-10-10 17:12:00,64.9,60.3,30.04,WNW,291,0.0,0.0,85,0.00,OVC,,0.23,WeatherDisplay:10.37,2013-10-10 21:12:00,
2013-10-10 17:17:00,64.9,59.9,30.04,WNW,291,0.0,0.0,84,0.00,BKN,,0.23,WeatherDisplay:10.37,2013-10-10 21:17:00,
2013-10-10 17:22:00,65.0,60.4,30.03,WNW,291,0.0,0.0,85,0.00,BKN,,0.23,WeatherDisplay:10.37,2013-10-10 21:22:00,
2013-10-10 17:27:00,65.0,60.4,30.03,WNW,291,0.0,0.0,85,0.00,BKN,,0.23,WeatherDisplay:10.37,2013-10-10 21:27:00,
2013-10-10 17:32:00,65.0,60.0,30.03,WNW,291,0.0,0.0,84,0.00,BKN,,0.23,WeatherDisplay:10.37,2013-10-10 21:32:00,
2013-10-10 17:37:00,64.9,59.9,30.03,WNW,291,0.0,0.0,84,0.00,BKN,,0.23,WeatherDisplay:10.37,2013-10-10 21:37:00,
2013-10-10 17:42:00,64.9,60.3,30.03,WNW,291,0.0,0.0,85,0.00,BKN,,0.23,WeatherDisplay:10.37,2013-10-10 21:42:00,
2013-10-10 17:47:00,64.8,60.2,30.03,WNW,291,0.0,0.0,85,0.00,BKN,,0.23,WeatherDisplay:10.37,2013-10-10 21:47:00,
2013-10-10 17:52:00,64.5,59.9,30.03,WNW,291,0.0,0.0,85,0.00,BKN,,0.23,WeatherDisplay:10.37,2013-10-10 21:52:00,
2013-10-10 17:57:00,64.3,59.7,30.03,WNW,291,0.0,0.0,85,0.00,BKN,,0.23,WeatherDisplay:10.37,2013-10-10 21:57:00,
2013-10-10 18:02:00,64.2,59.9,30.03,WNW,291,0.0,0.0,86,0.00,BKN,,0.23,WeatherDisplay:10.37,2013-10-10 22:02:00,
2013-10-10 18:07:00,64.2,59.9,30.03,WNW,291,0.0,0.0,86,0.00,BKN,,0.23,WeatherDisplay:10.37,2013-10-10 22:07:00,
2013-10-10 18:12:00,64.1,59.8,30.03,WNW,291,0.0,0.0,86,0.00,BKN,,0.23,WeatherDisplay:10.37,2013-10-10 22:12:00,
2013-10-10 18:17:00,64.0,60.1,30.03,WNW,291,0.0,0.0,87,0.00,BKN,,0.23,WeatherDisplay:10.37,2013-10-10 22:17:00,
2013-10-10 18:22:00,63.9,60.3,30.03,WNW,291,0.0,0.0,88,0.00,BKN,,0.23,WeatherDisplay:10.37,2013-10-10 22:22:00,
2013-10-10 18:27:00,63.8,60.2,30.03,WNW,291,0.0,0.0,88,0.00,BKN,,0.23,WeatherDisplay:10.37,2013-10-10 22:27:00,
2013-10-10 18:32:00,63.8,60.2,30.04,WNW,291,0.0,0.0,88,0.00,BKN,,0.23,WeatherDisplay:10.37,2013-10-10 22:32:00,
2013-10-10 18:37:00,63.7,60.1,30.04,WNW,291,0.0,0.0,88,0.00,BKN,,0.23,WeatherDisplay:10.37,2013-10-10 22:37:00,
2013-10-10 18:42:00,63.7,60.4,30.04,WNW,291,0.0,0.0,89,0.00,BKN,,0.23,WeatherDisplay:10.37,2013-10-10 22:42:00,
2013-10-10 18:47:00,63.6,60.3,30.04,WNW,291,0.0,0.0,89,0.00,BKN,,0.23,WeatherDisplay:10.37,2013-10-10 22:47:00,
2013-10-10 18:52:00,63.5,60.2,30.04,WNW,291,0.0,0.0,89,0.00,BKN,,0.23,WeatherDisplay:10.37,2013-10-10 22:52:00,
2013-10-10 18:57:00,63.4,60.4,30.04,WNW,291,0.0,0.0,90,0.00,BKN,,0.23,WeatherDisplay:10.37,2013-10-10 22:57:00,
2013-10-10 19:02:00,63.3,60.3,30.04,WNW,291,0.0,0.0,90,0.00,BKN,,0.23,WeatherDisplay:10.37,2013-10-10 23:02:00,
2013-10-10 19:07:00,63.2,60.2,30.04,WNW,291,0.0,0.0,90,0.00,BKN,,0.23,WeatherDisplay:10.37,2013-10-10 23:07:00,
2013-10-10 19:12:00,62.9,59.9,30.04,WNW,291,0.0,0.0,90,0.00,BKN,,0.23,WeatherDisplay:10.37,2013-10-10 23:12:00,
2013-10-10 19:17:00,62.8,60.1,30.04,WNW,291,0.0,0.0,91,0.00,BKN,,0.23,WeatherDisplay:10.37,2013-10-10 23:17:00,
2013-10-10 19:22:00,62.7,60.0,30.04,WNW,291,0.0,0.0,91,0.00,BKN,,0.23,WeatherDisplay:10.37,2013-10-10 23:22:00,
2013-10-10 19:27:00,62.6,59.9,30.04,WNW,291,0.0,0.0,91,0.00,BKN,,0.23,WeatherDisplay:10.37,2013-10-10 23:27:00,
2013-10-10 19:32:00,62.6,60.2,30.04,WNW,291,0.0,0.0,92,0.00,BKN,,0.23,WeatherDisplay:10.37,2013-10-10 23:32:00,
2013-10-10 19:37:00,62.5,60.1,30.04,WNW,291,0.0,0.0,92,0.00,BKN,,0.23,WeatherDisplay:10.37,2013-10-10 23:37:00,
2013-10-10 19:42:00,62.4,60.0,30.04,WNW,291,0.0,0.0,92,0.00,BKN,,0.23,WeatherDisplay:10.37,2013-10-10 23:42:00,
2013-10-10 19:47:00,62.2,59.8,30.04,WNW,291,0.0,0.0,92,0.00,BKN,,0.23,WeatherDisplay:10.37,2013-10-10 23:47:00,
2013-10-10 19:52:00,62.1,59.7,30.04,WNW,291,0.0,0.0,92,0.00,BKN,,0.23,WeatherDisplay:10.37,2013-10-10 23:52:00,
2013-10-10 19:57:00,62.1,59.7,30.03,WNW,291,0.0,0.0,92,0.00,BKN,,0.23,WeatherDisplay:10.37,2013-10-10 23:57:00,
2013-10-10 20:02:00,62.1,60.1,30.03,WNW,291,0.0,0.0,93,0.00,BKN,,0.23,WeatherDisplay:10.37,2013-10-11 00:02:00,
2013-10-10 20:07:00,62.1,60.1,30.03,WNW,291,0.0,0.0,93,0.00,BKN,,0.23,WeatherDisplay:10.37,2013-10-11 00:07:00,
2013-10-10 20:12:00,62.1,60.4,30.03,WNW,291,0.0,0.0,94,0.00,BKN,,0.23,WeatherDisplay:10.37,2013-10-11 00:12:00,
2013-10-10 20:17:00,62.1,60.4,30.03,WNW,291,0.0,0.0,94,0.00,OVC,,0.23,WeatherDisplay:10.37,2013-10-11 00:17:00,
2013-10-10 20:22:00,62.1,60.4,30.03,WNW,291,0.0,0.0,94,0.00,OVC,,0.23,WeatherDisplay:10.37,2013-10-11 00:22:00,
2013-10-10 20:27:00,62.0,60.3,30.03,WNW,291,0.0,0.0,94,0.00,OVC,,0.23,WeatherDisplay:10.37,2013-10-11 00:27:00,
2013-10-10 20:32:00,62.0,60.3,30.02,WNW,291,0.0,0.0,94,0.00,OVC,,0.23,WeatherDisplay:10.37,2013-10-11 00:32:00,
2013-10-10 20:37:00,62.0,60.3,30.02,WNW,291,0.0,0.0,94,0.00,OVC,,0.23,WeatherDisplay:10.37,2013-10-11 00:37:00,
2013-10-10 20:42:00,62.0,60.3,30.02,WNW,291,0.1,1.2,94,0.00,OVC,,0.23,WeatherDisplay:10.37,2013-10-11 00:42:00,
2013-10-10 20:47:00,62.0,60.0,30.02,WNW,291,0.0,1.2,93,0.00,OVC,,0.23,WeatherDisplay:10.37,2013-10-11 00:47:00,
2013-10-10 20:52:00,61.9,59.9,30.03,WNW,291,0.0,0.0,93,0.00,OVC,,0.23,WeatherDisplay:10.37,2013-10-11 00:52:00,
2013-10-10 20:57:00,61.9,59.9,30.02,WNW,291,0.0,0.0,93,0.00,OVC,,0.23,WeatherDisplay:10.37,2013-10-11 00:57:00,
2013-10-10 21:02:00,61.9,59.9,30.02,WNW,291,0.0,0.0,93,0.00,OVC,,0.23,WeatherDisplay:10.37,2013-10-11 01:02:00,
2013-10-10 21:07:00,61.7,60.0,30.02,WNW,291,0.0,0.0,94,0.00,OVC,,0.23,WeatherDisplay:10.37,2013-10-11 01:07:00,
2013-10-10 21:12:00,61.6,59.9,30.02,WNW,291,0.0,0.0,94,0.00,OVC,,0.23,WeatherDisplay:10.37,2013-10-11 01:12:00,
2013-10-10 21:17:00,61.5,59.8,30.02,WNW,291,0.0,0.0,94,0.00,OVC,,0.23,WeatherDisplay:10.37,2013-10-11 01:17:00,
2013-10-10 21:22:00,61.3,59.6,30.02,WNW,291,0.0,0.0,94,0.00,OVC,,0.23,WeatherDisplay:10.37,2013-10-11 01:22:00,
2013-10-10 21:27:00,61.2,59.5,30.02,WNW,291,0.0,0.0,94,0.00,OVC,,0.23,WeatherDisplay:10.37,2013-10-11 01:27:00,
2013-10-10 21:32:00,61.1,59.7,30.02,WNW,291,0.0,0.0,95,0.00,OVC,,0.23,WeatherDisplay:10.37,2013-10-11 01:32:00,
2013-10-10 21:37:00,61.0,59.6,30.02,WNW,291,0.0,0.0,95,0.00,OVC,,0.23,WeatherDisplay:10.37,2013-10-11 01:37:00,
2013-10-10 21:42:00,60.9,59.5,30.02,WNW,291,0.0,0.0,95,0.00,OVC,,0.23,WeatherDisplay:10.37,2013-10-11 01:42:00,
2013-10-10 21:47:00,60.9,59.5,30.02,WNW,291,0.0,0.0,95,0.00,OVC,,0.23,WeatherDisplay:10.37,2013-10-11 01:47:00,
2013-10-10 21:52:00,60.9,59.5,30.02,WNW,291,0.0,0.0,95,0.00,OVC,,0.23,WeatherDisplay:10.37,2013-10-11 01:52:00,
2013-10-10 21:57:00,60.9,59.5,30.02,WNW,291,0.0,0.0,95,0.00,OVC,,0.23,WeatherDisplay:10.37,2013-10-11 01:57:00,
2013-10-10 22:02:00,60.9,59.5,30.02,WNW,291,0.0,0.0,95,0.00,OVC,,0.23,WeatherDisplay:10.37,2013-10-11 02:02:00,
2013-10-10 22:07:00,61.1,59.7,30.02,WNW,291,0.0,0.0,95,0.00,OVC,,0.23,WeatherDisplay:10.37,2013-10-11 02:07:00,
2013-10-10 22:12:00,61.0,59.6,30.02,WNW,291,0.0,0.0,95,0.00,OVC,,0.23,WeatherDisplay:10.37,2013-10-11 02:12:00,
2013-10-10 22:17:00,61.0,59.6,30.02,WNW,291,0.0,0.0,95,0.00,OVC,,0.23,WeatherDisplay:10.37,2013-10-11 02:17:00,
2013-10-10 22:22:00,60.9,59.5,30.02,WNW,291,0.0,0.0,95,0.00,OVC,,0.23,WeatherDisplay:10.37,2013-10-11 02:22:00,
2013-10-10 22:27:00,60.9,59.5,30.02,WNW,291,0.0,0.0,95,0.00,OVC,,0.23,WeatherDisplay:10.37,2013-10-11 02:27:00,
2013-10-10 22:32:00,60.9,59.5,30.02,WNW,291,0.0,0.0,95,0.00,OVC,,0.23,WeatherDisplay:10.37,2013-10-11 02:32:00,
2013-10-10 22:37:00,60.9,59.5,30.02,WNW,291,0.0,0.0,95,0.00,OVC,,0.23,WeatherDisplay:10.37,2013-10-11 02:37:00,
2013-10-10 22:42:00,60.9,59.5,30.02,WNW,291,0.0,0.0,95,0.00,OVC,,0.23,WeatherDisplay:10.37,2013-10-11 02:42:00,
2013-10-10 22:47:00,60.9,59.5,30.02,WNW,291,0.0,0.0,95,0.00,OVC,,0.23,WeatherDisplay:10.37,2013-10-11 02:47:00,
2013-10-10 22:52:00,60.9,59.8,30.02,WNW,291,0.0,0.0,96,0.00,OVC,,0.23,WeatherDisplay:10.37,2013-10-11 02:52:00,
2013-10-10 22:57:00,60.9,59.8,30.02,WNW,291,0.0,0.0,96,0.00,OVC,,0.23,WeatherDisplay:10.37,2013-10-11 02:57:00,
2013-10-10 23:02:00,60.9,59.5,30.01,WNW,291,0.0,0.0,95,0.00,OVC,,0.23,WeatherDisplay:10.37,2013-10-11 03:02:00,
2013-10-10 23:07:00,60.8,59.4,30.01,WNW,291,0.0,0.0,95,0.00,OVC,,0.23,WeatherDisplay:10.37,2013-10-11 03:07:00,
2013-10-10 23:12:00,60.7,59.3,30.01,WNW,291,0.0,0.0,95,0.00,OVC,,0.23,WeatherDisplay:10.37,2013-10-11 03:12:00,
2013-10-10 23:17:00,60.6,59.2,30.01,WNW,291,0.0,0.0,95,0.00,BKN,,0.23,WeatherDisplay:10.37,2013-10-11 03:17:00,
2013-10-10 23:22:00,60.4,59.0,30.01,WNW,291,0.0,0.0,95,0.00,BKN,,0.23,WeatherDisplay:10.37,2013-10-11 03:22:00,
2013-10-10 23:27:00,60.4,59.0,30.01,WNW,291,0.0,0.0,95,0.00,BKN,,0.23,WeatherDisplay:10.37,2013-10-11 03:27:00,
2013-10-10 23:32:00,60.4,59.0,30.01,NE,49,0.0,0.0,95,0.00,BKN,,0.23,WeatherDisplay:10.37,2013-10-11 03:32:00,
2013-10-10 23:37:00,60.4,58.7,30.01,NE,49,0.0,0.0,94,0.00,BKN,,0.23,WeatherDisplay:10.37,2013-10-11 03:37:00,
2013-10-10 23:42:00,60.5,58.8,30.01,NE,53,0.1,1.2,94,0.00,BKN,,0.23,WeatherDisplay:10.37,2013-10-11 03:42:00,
2013-10-10 23:47:00,60.4,58.7,30.01,NE,53,0.0,0.0,94,0.00,BKN,,0.23,WeatherDisplay:10.37,2013-10-11 03:47:00,
2013-10-10 23:52:00,60.3,58.6,30.01,NE,53,0.0,0.0,94,0.00,BKN,,0.23,WeatherDisplay:10.37,2013-10-11 03:52:00,
2013-10-10 23:57:00,60.3,58.6,30.01,NE,53,0.0,0.0,94,0.00,BKN,,0.23,WeatherDisplay:10.37,2013-10-11 03:57:00,